Tracking 30743 objects as of 23-Jun-2025
HD Live streaming from Space Station
objects crossing your sky now

COSMOS 614

Track COSMOS 614 now!
10-day predictions
COSMOS 614 is classified as:


NORAD ID: 6965
Int'l Code: 1973-098A
Perigee: 749.4 km
Apogee: 782.0 km
Inclination: 74.1 °
Period: 100.0 minutes
Semi major axis: 7136 km
RCS: 2.1152 m2 (large)
Launch date: December 4, 1973
Source: Commonwealth of Independent States (former USSR) (CIS)
Launch site: PLESETSK MISSILE AND SPACE COMPLEX (PKMTR)
Your satellite tracking list
Your tracking list is empty




NASA's NSSDC Master Catalog

Two Line Element Set (TLE):
1 06965U 73098A   25173.43084904  .00000102  00000-0  40620-4 0  9992
2 06965  74.0570 339.2775 0022824 355.5427   4.5521 14.39977708702513
Source of the keplerian elements: AFSPC